Weather observations for the past three days for
Casper, Natrona County International Airport
Imperial (Metric)
Date Time (mdt) Wind (mph) Vis. (mi.) Weather Sky Cond. Temperature (ºF) Relative Humidity Wind Chill (°F) Heat Index (°F) Pressure Precipitation (in)
Air Dwpt 6 hour altimeter (in) sea level (mb) 1 hr 3 hr 6 hr
Max. Min.
13 01:53 S 3 10.00 Fair CLR 54 44.1 69% 30.03 1009.9
13 00:53 SW 6 10.00 Fair CLR 57 44.1 62% 30.02 1009.4
12 23:53 NW 5 10.00 Fair CLR 60.1 37.9 90 59 44% 30.01 1008.9
12 22:53 N 9 10.00 Fair CLR 66.9 35.1 31% 29.99 1007.7
12 21:53 W 10 10.00 Fair CLR 69.1 35.1 29% 29.96 1006.9
12 20:53 W 10 10.00 Fair CLR 77 34 21% 77 29.94 1005.7
12 19:53 W 15 G 24 10.00 Fair CLR 84 33.1 16% 81 29.92 1005.2
12 18:53 W 22 G 35 10.00 Fair and Breezy CLR 88 35.1 15% 84 29.91 1004.7
12 17:53 W 18 G 32 10.00 Fair CLR 90 36 93 87.1 15% 86 29.91 1005.0
12 16:53 W 16 G 33 10.00 Fair CLR 91 36 14% 87 29.92 1005.5
12 15:53 W 23 G 38 10.00 Fair and Breezy CLR 91 35.1 14% 87 29.93 1005.9
12 14:53 W 28 G 39 10.00 Fair and Windy CLR 91.9 35.1 13% 88 29.93 1005.5
12 13:53 W 21 G 31 10.00 Fair and Breezy CLR 90 35.1 14% 86 29.96 1006.5
12 12:53 W 20 G 32 10.00 Fair CLR 89.1 33.1 14% 85 29.98 1007.6
12 11:53 W 20 G 38 10.00 Fair CLR 87.1 33.1 88 59 14% 84 29.99 1008.2
12 10:53 W 28 G 36 10.00 Fair and Windy CLR 84.9 35.1 17% 82 30.01 1009.1
12 09:53 W 17 G 32 10.00 Fair CLR 82.9 37.9 20% 81 30.01 1009.2
12 08:53 SW 12 10.00 Fair CLR 75.9 44.1 32% 77 30.02 1009.6
12 07:53 SW 17 G 24 10.00 Fair CLR 70 43 38% 30.01 1008.9
12 06:53 SW 15 10.00 Fair CLR 64.9 41 42% 30 1008.3
12 05:53 SW 12 10.00 Fair CLR 59 37.9 64.9 55.9 46% 29.99 1008.2
12 04:53 SW 14 10.00 Fair CLR 59 36 42% 29.97 1007.8
12 03:53 SW 12 10.00 Fair CLR 57.9 37 46% 29.96 1007.4
12 02:53 SW 10 10.00 Fair CLR 60.1 37 42% 29.96 1007.2
12 01:53 W 10 10.00 Fair CLR 64 36 35% 29.95 1006.9
12 00:53 SW 7 10.00 Fair CLR 59 37.9 46% 29.95 1007.4
11 23:53 W 9 10.00 Fair CLR 60.1 39 87.1 55.9 46% 29.94 1007.1
11 22:53 W 5 10.00 Fair CLR 59 43 56% 29.94 1007.5
11 21:53 S 5 10.00 Fair CLR 61 43 52% 29.93 1007.3
11 20:53 W 5 10.00 Fair CLR 66 43 43% 29.9 1006.4
11 19:53 NW 9 10.00 Fair CLR 78.1 37 23% 78 29.89 1005.6
11 18:53 W 12 10.00 Fair CLR 84.9 33.1 15% 82 29.9 1005.5
11 17:53 W 15 G 29 10.00 Fair CLR 87.1 30 88 75.9 13% 83 29.9 1005.9
11 16:53 W 13 G 25 10.00 Fair CLR 87.1 27 11% 84 29.92 1006.8
11 15:53 W 16 G 22 10.00 Fair CLR 87.1 34 15% 84 29.95 1007.8
11 14:53 W 5 G 15 10.00 A Few Clouds FEW095 86 39.9 20% 83 29.98 1008.7
11 13:53 S 10 10.00 Partly Cloudy SCT100 SCT110 81 44.1 27% 80 30.01 1010.2
11 12:53 SW 6 G 18 10.00 Partly Cloudy SCT080 SCT095 81 45 28% 80 30.04 1010.7
11 11:53 SW 13 G 20 10.00 Mostly Cloudy SCT070 BKN100 79 48 79 50 34% 79 30.05 1011.2
11 10:53 SW 10 G 21 10.00 Fair CLR 75.9 52 43% 78 30.08 1012.1
11 09:53 S 12 G 21 10.00 Fair CLR 72 53.1 52% 30.08 1012.4
11 08:53 S 9 10.00 Fair CLR 66 53.1 63% 30.09 1013.1
11 07:53 SW 3 10.00 Fair CLR 60.1 50 70% 30.1 1013.5
11 06:53 Calm 10.00 Fair CLR 55 50 83% 30.1 1013.6
11 05:53 NW 3 10.00 A Few Clouds FEW090 50 46.9 57.9 45 89% 30.1 1013.7
11 04:53 W 3 10.00 Fair CLR 46 44.1 93% 30.1 1014.0
11 03:53 NW 5 10.00 Fair CLR 46.9 45 93% 45 30.09 1013.2
11 02:53 W 5 10.00 Fair CLR 48.9 46.9 93% 48 30.1 1013.2
11 01:53 Calm 10.00 Fair CLR 51.1 48 89% 30.09 1013.4
11 00:53 NE 8 10.00 Fair CLR 54 48.9 83% 30.1 1012.7
10 23:53 NE 7 10.00 Fair CLR 57.9 50 80.1 57.9 75% 30.09 1012.1
10 22:53 NE 10 10.00 Fair CLR 60.1 48.9 67% 30.07 1011.9
10 21:53 NE 15 10.00 Fair CLR 64 50 60% 30.05 1010.9
10 20:53 NE 10 10.00 Fair CLR 66 48.9 54% 30.01 1009.8
10 19:53 NE 14 10.00 Fair CLR 72 50 46% 29.98 1008.7
10 18:53 N 16 G 25 10.00 Fair CLR 75 52 45% 78 29.94 1007.6
10 17:53 N 16 10.00 Fair CLR 80.1 50 84.9 75.9 35% 80 29.92 1006.9
10 16:53 N 16 G 25 10.00 A Few Clouds FEW100 77 52 42% 78 29.92 1006.8
10 15:53 W 21 G 35 10.00 Fair and Breezy CLR 84.9 41 21% 82 29.91 1005.6
10 14:53 NW 21 G 36 10.00 A Few Clouds and Breezy FEW110 82 42.1 24% 80 29.91 1006.3
10 13:53 W 18 G 33 10.00 A Few Clouds FEW110 79 46 31% 79 29.92 1006.7
10 12:53 NW 14 G 30 10.00 A Few Clouds FEW080 82.9 48.9 31% 81 29.95 1007.6
10 11:53 W 18 G 30 10.00 A Few Clouds FEW080 82.9 50 84 54 32% 81 29.95 1007.4
10 10:53 SW 8 G 23 10.00 Fair CLR 77 51.1 40% 78 29.96 1008.0
10 09:53 SW 12 10.00 Fair CLR 73.9 57 56% 29.97 1008.3
10 08:53 S 9 10.00 Fair CLR 70 55.9 61% 29.97 1008.5
10 07:53 SW 9 10.00 Fair CLR 64 57 78% 29.97 1008.8
10 06:53 W 6 10.00 Fair CLR 59 54 83% 29.99 1009.8
10 05:53 W 5 10.00 A Few Clouds FEW120 54 53.1 57 52 97% 30.01 1010.7
10 04:53 SW 7 10.00 Partly Cloudy FEW055 SCT095 SCT110 55.9 54 93% 30.03 1011.4
10 03:53 Calm 10.00 Fair CLR 55.9 54 93% 30.03 1010.7
10 02:53 SW 5 10.00 Partly Cloudy SCT110 54 53.1 97% 30.05 1011.5
Date Time (mdt) Wind (mph) Vis. (mi.) Weather Sky Cond. Air Dwpt Max. Min. Relative Humidity Wind Chill (°F) Heat Index (°F) altimeter (in) sea level (mb) 1 hr 3 hr 6 hr
6 hour
Temperature (ºF) Pressure Precipitation (in)